Hourly Weather Lucjanowo

Today, 20 June, Sunday

Time Temperature Precipitation Wind Pressure Humidity
00:00 +22°C° 0 mm 3 mps 750 mmHg 80%
01:00 +21°C° 0 mm 3 mps 750 mmHg 82%
02:00 +21°C° 0 mm 3 mps 749 mmHg 84%
03:00 +20°C° 0 mm 3 mps 749 mmHg 85%
04:00 +20°C° 0 mm 3 mps 749 mmHg 86%
05:00 +21°C° 0 mm 3 mps 749 mmHg 81%
06:00 +22°C° 0 mm 4 mps 749 mmHg 76%
07:00 +25°C° 0 mm 4 mps 749 mmHg 71%
08:00 +26°C° 0 mm 4 mps 749 mmHg 65%
09:00 +27°C° 0 mm 4 mps 749 mmHg 59%
10:00 +28°C° 0 mm 5 mps 749 mmHg 52%
11:00 +29°C° 0 mm 5 mps 749 mmHg 49%
12:00 +30°C° 0 mm 5 mps 749 mmHg 46%
13:00 +30°C° 0 mm 5 mps 748 mmHg 43%
14:00 +32°C° 0 mm 4 mps 748 mmHg 43%
15:00 +32°C° 0 mm 4 mps 748 mmHg 44%
16:00 +32°C° 0 mm 4 mps 748 mmHg 44%
17:00 +29°C° 0 mm 4 mps 747 mmHg 52%
18:00 +28°C° 0 mm 3 mps 747 mmHg 59%
19:00 +26°C° 0 mm 3 mps 747 mmHg 67%
20:00 +25°C° 0 mm 3 mps 747 mmHg 70%
21:00 +24°C° 0 mm 3 mps 747 mmHg 73%
22:00 +22°C° 0 mm 3 mps 747 mmHg 75%
23:00 +21°C° 0 mm 3 mps 747 mmHg 79%

Tomorrow, 21 June, Monday

Time Temperature Precipitation Wind Pressure Humidity
00:00 +21°C° 0 mm 3 mps 746 mmHg 83%
01:00 +20°C° 0 mm 3 mps 746 mmHg 87%
02:00 +20°C° 0 mm 3 mps 746 mmHg 88%
03:00 +20°C° 0 mm 3 mps 746 mmHg 90%
04:00 +19°C° 0 mm 3 mps 746 mmHg 91%
05:00 +21°C° 0 mm 4 mps 746 mmHg 85%
06:00 +22°C° 0 mm 4 mps 746 mmHg 79%
07:00 +25°C° 0 mm 5 mps 746 mmHg 72%
08:00 +26°C° 0 mm 5 mps 746 mmHg 67%
09:00 +27°C° 0 mm 5 mps 746 mmHg 62%
10:00 +29°C° 0 mm 5 mps 746 mmHg 57%
11:00 +29°C° 0 mm 4 mps 745 mmHg 54%
12:00 +30°C° 0 mm 4 mps 745 mmHg 51%
13:00 +31°C° 0 mm 3 mps 745 mmHg 47%
14:00 +31°C° 0 mm 3 mps 744 mmHg 47%
15:00 +32°C° 0 mm 4 mps 744 mmHg 47%
16:00 +32°C° 0 mm 4 mps 744 mmHg 47%
17:00 +30°C° 0.1 mm 4 mps 744 mmHg 56%
18:00 +28°C° 0.1 mm 4 mps 744 mmHg 64%
19:00 +26°C° 0.1 mm 3 mps 744 mmHg 73%
20:00 +25°C° 0.3 mm 4 mps 745 mmHg 80%
21:00 +22°C° 0.3 mm 4 mps 745 mmHg 86%
22:00 +20°C° 0.3 mm 4 mps 745 mmHg 92%
23:00 +20°C° 0.3 mm 4 mps 745 mmHg 92%

Day after tomorrow, 22 June, Tuesday

Time Temperature Precipitation Wind Pressure Humidity
00:00 +20°C° 0.3 mm 3 mps 745 mmHg 92%
01:00 +19°C° 0.3 mm 3 mps 745 mmHg 92%
02:00 +19°C° 0.1 mm 3 mps 745 mmHg 93%
03:00 +19°C° 0.1 mm 3 mps 745 mmHg 94%
04:00 +19°C° 0.1 mm 3 mps 745 mmHg 95%
05:00 +19°C° 0 mm 3 mps 746 mmHg 93%
06:00 +20°C° 0 mm 3 mps 746 mmHg 91%
07:00 +20°C° 0 mm 3 mps 747 mmHg 88%
08:00 +22°C° 0 mm 3 mps 747 mmHg 82%
09:00 +23°C° 0 mm 4 mps 747 mmHg 77%
10:00 +25°C° 0 mm 4 mps 748 mmHg 71%
11:00 +26°C° 0 mm 4 mps 748 mmHg 67%
12:00 +27°C° 0 mm 3 mps 748 mmHg 62%
13:00 +28°C° 0 mm 3 mps 748 mmHg 58%
14:00 +28°C° 0 mm 3 mps 748 mmHg 57%
15:00 +28°C° 0 mm 3 mps 748 mmHg 56%
16:00 +29°C° 0 mm 3 mps 748 mmHg 55%
17:00 +28°C° 0 mm 3 mps 748 mmHg 60%
18:00 +27°C° 0 mm 2 mps 748 mmHg 66%
19:00 +26°C° 0 mm 2 mps 748 mmHg 71%
20:00 +24°C° 0 mm 2 mps 748 mmHg 73%
21:00 +23°C° 0 mm 2 mps 748 mmHg 76%
22:00 +21°C° 0 mm 2 mps 748 mmHg 78%
23:00 +20°C° 0 mm 3 mps 748 mmHg 84%

23 June, Wednesday

Time Temperature Precipitation Wind Pressure Humidity
00:00 +20°C° 0 mm 3 mps 748 mmHg 90%
01:00 +19°C° 0 mm 3 mps 748 mmHg 95%
02:00 +19°C° 0 mm 3 mps 748 mmHg 96%
03:00 +18°C° 0 mm 3 mps 749 mmHg 96%
04:00 +18°C° 0 mm 3 mps 749 mmHg 97%
05:00 +19°C° 0 mm 3 mps 749 mmHg 92%
06:00 +20°C° 0 mm 4 mps 749 mmHg 88%
07:00 +22°C° 0 mm 4 mps 749 mmHg 83%
08:00 +24°C° 0 mm 3 mps 749 mmHg 79%
09:00 +26°C° 0 mm 3 mps 749 mmHg 74%
10:00 +27°C° 0 mm 2 mps 749 mmHg 70%
11:00 +28°C° 0.2 mm 3 mps 749 mmHg 66%
12:00 +29°C° 0.2 mm 3 mps 749 mmHg 62%
13:00 +30°C° 0.2 mm 3 mps 749 mmHg 59%
14:00 +30°C° 0.7 mm 3 mps 749 mmHg 62%
15:00 +29°C° 0.7 mm 4 mps 749 mmHg 65%
16:00 +28°C° 0.7 mm 5 mps 749 mmHg 68%
17:00 +26°C° 0.1 mm 5 mps 750 mmHg 72%
18:00 +23°C° 0.1 mm 5 mps 750 mmHg 75%
19:00 +21°C° 0.1 mm 5 mps 751 mmHg 79%
20:00 +20°C° 0 mm 4 mps 751 mmHg 80%
21:00 +18°C° 0 mm 4 mps 751 mmHg 82%
22:00 +17°C° 0 mm 4 mps 752 mmHg 83%
23:00 +15°C° 0 mm 4 mps 752 mmHg 87%

24 June, Thursday

Time Temperature Precipitation Wind Pressure Humidity
00:00 +14°C° 0 mm 4 mps 752 mmHg 91%
01:00 +13°C° 0 mm 3 mps 752 mmHg 95%
02:00 +13°C° 0 mm 3 mps 752 mmHg 94%
03:00 +13°C° 0 mm 3 mps 752 mmHg 94%
04:00 +13°C° 0 mm 3 mps 752 mmHg 93%
05:00 +14°C° 0 mm 3 mps 752 mmHg 89%
06:00 +16°C° 0 mm 3 mps 753 mmHg 84%
07:00 +18°C° 0 mm 3 mps 753 mmHg 79%
08:00 +19°C° 0 mm 2 mps 753 mmHg 74%
09:00 +20°C° 0 mm 2 mps 753 mmHg 69%
10:00 +21°C° 0 mm 2 mps 753 mmHg 64%
11:00 +24°C° 0 mm 2 mps 753 mmHg 61%
12:00 +25°C° 0 mm 2 mps 753 mmHg 57%
13:00 +26°C° 0 mm 2 mps 752 mmHg 53%
14:00 +26°C° 0 mm 1 mps 752 mmHg 52%
15:00 +27°C° 0 mm 1 mps 752 mmHg 52%
16:00 +27°C° 0 mm 1 mps 751 mmHg 51%
17:00 +26°C° 0 mm 2 mps 751 mmHg 57%
18:00 +25°C° 0 mm 2 mps 750 mmHg 63%
19:00 +24°C° 0 mm 3 mps 750 mmHg 69%
20:00 +22°C° 0.9 mm 3 mps 750 mmHg 76%
21:00 +20°C° 0.9 mm 3 mps 749 mmHg 82%
22:00 +19°C° 0.9 mm 2 mps 749 mmHg 88%
23:00 +19°C° 6.3 mm 3 mps 749 mmHg 91%

25 June, Friday

Time Temperature Precipitation Wind Pressure Humidity
00:00 +19°C° 6.3 mm 3 mps 749 mmHg 94%
01:00 +18°C° 6.3 mm 4 mps 748 mmHg 97%
02:00 +18°C° 0.1 mm 4 mps 748 mmHg 97%
03:00 +18°C° 0.1 mm 4 mps 748 mmHg 97%
04:00 +18°C° 0.1 mm 4 mps 748 mmHg 97%
05:00 +17°C° 0.1 mm 4 mps 749 mmHg 96%
06:00 +16°C° 0.1 mm 5 mps 749 mmHg 96%
07:00 +15°C° 0.1 mm 6 mps 749 mmHg 95%
08:00 +15°C° 0.1 mm 6 mps 750 mmHg 93%
09:00 +15°C° 0.1 mm 6 mps 750 mmHg 91%
10:00 +15°C° 0.1 mm 7 mps 751 mmHg 90%
11:00 +16°C° 0 mm 7 mps 751 mmHg 84%
12:00 +17°C° 0 mm 6 mps 752 mmHg 79%
13:00 +19°C° 0 mm 6 mps 752 mmHg 74%
14:00 +19°C° 0 mm 6 mps 752 mmHg 72%
15:00 +19°C° 0 mm 5 mps 752 mmHg 70%
16:00 +19°C° 0 mm 5 mps 752 mmHg 67%
17:00 +19°C° 0 mm 4 mps 752 mmHg 70%
18:00 +19°C° 0 mm 3 mps 752 mmHg 72%
19:00 +18°C° 0 mm 3 mps 752 mmHg 74%
20:00 +17°C° 0 mm 2 mps 752 mmHg 78%
21:00 +16°C° 0 mm 1 mps 753 mmHg 82%
22:00 +15°C° 0 mm 1 mps 753 mmHg 85%
23:00 +14°C° 0 mm 1 mps 753 mmHg 87%
Show more

We Need Your Consent

Meteoprog and our Service Providers may store and access personal data such as cookies, device identifiers or other similar technologies on your device and process such data to personalise content and ads, as well as provide social media features and to analyse the traffic.

  • Store and/or access information on your device

    Cookies, device identifiers or other information can be stored or accessed on your device for the purposes indicated above.

  • Personalised ads and content, ad and content measurement, audience insights, and products development

    Ads and content can be personalised based on a profile. More data can be added to better personalise ads and content. Ad and content performance can be measured. Insights about the audience who saw the ads and content can be derived. Such data can be used to develop or improve user’s experience, systems and software.

By clicking ‘I Agree’ you will allow the use of indicated cookies, device identifiers, web beacons or other similar technologies. Your settings can be changed in the browser on your device.

For certain purposes, legitimate interests may be relied on, rather than consent. You can read more about this in our Privacy and Cookie Policy.